Location: Olomouc
(49.5830°N, 17.2500°E)
Time: 21:18:56
(UTC+02:00)

ISS - Pass Details

Date: 15 May 2021
Orbit: 417 x 422 km, 51.6° (Epoch: 14 June)

Event Time Altitude Azimuth Distance (km) Brightness Sun altitude
Rises 03:39:33 0° 288° (WNW) 2,374 -0.2 -11.6°
Reaches altitude 10° 03:41:44 10° 280° (W) 1,508 -1.2 -11.4°
Maximum altitude 03:44:53 37° 212° (SSW) 679 -3.2 -11.1°
Drops below altitude 10° 03:48:02 10° 143° (SE) 1,503 -1.0 -10.7°
Sets 03:50:12 0° 135° (SE) 2,365 0.1 -10.5°
